Time,TemperatureF,DewpointF,PressureIn,WindDirection,WindDirectionDegrees,WindSpeedMPH,WindSpeedGustMPH,Humidity,HourlyPrecipIn,Conditions,Clouds,dailyrainin,SoftwareType,DateUTC
2013-09-06 00:11:00,60.0,42.0,29.88,SW,227,0.0,-999.0,52,-99.99,,,-99.99,,2013-09-06 06:11:00,
2013-09-06 00:21:00,59.0,41.0,29.88,SW,227,0.0,-999.0,52,-99.99,,,-99.99,,2013-09-06 06:21:00,
2013-09-06 00:53:00,58.0,41.0,29.89,SW,227,0.0,-999.0,54,-99.99,,,-99.99,,2013-09-06 06:53:00,
2013-09-06 01:11:00,57.0,41.0,29.89,SW,227,0.0,-999.0,56,-99.99,,,-99.99,,2013-09-06 07:11:00,
2013-09-06 01:23:00,56.0,41.0,29.90,SW,227,0.0,-999.0,57,-99.99,,,-99.99,,2013-09-06 07:23:00,
2013-09-06 01:52:00,55.0,41.0,29.90,SW,227,0.0,-999.0,58,-99.99,,,-99.99,,2013-09-06 07:52:00,
2013-09-06 02:12:00,54.0,40.0,29.90,SW,227,0.0,-999.0,58,-99.99,,,-99.99,,2013-09-06 08:12:00,
2013-09-06 02:22:00,54.0,39.0,29.90,SW,227,0.0,-999.0,57,-99.99,,,-99.99,,2013-09-06 08:22:00,
2013-09-06 02:42:00,53.0,39.0,29.90,SW,227,0.0,-999.0,59,-99.99,,,-99.99,,2013-09-06 08:42:00,
2013-09-06 02:52:00,53.0,39.0,29.90,SW,227,0.0,-999.0,59,-99.99,,,-99.99,,2013-09-06 08:52:00,
2013-09-06 03:11:00,53.0,39.0,29.89,SW,227,0.0,-999.0,59,-99.99,,,-99.99,,2013-09-06 09:11:00,
2013-09-06 03:22:00,52.0,39.0,29.90,SW,227,0.0,-999.0,61,-99.99,,,-99.99,,2013-09-06 09:22:00,
2013-09-06 03:53:00,52.0,39.0,29.90,SW,227,0.0,-999.0,62,-99.99,,,-99.99,,2013-09-06 09:53:00,
2013-09-06 04:12:00,52.0,39.0,29.90,SW,227,0.0,-999.0,60,-99.99,,,-99.99,,2013-09-06 10:12:00,
2013-09-06 04:23:00,52.0,38.0,29.90,SW,227,0.0,-999.0,59,-99.99,,,-99.99,,2013-09-06 10:23:00,
2013-09-06 04:42:00,51.0,37.0,29.90,SW,227,0.0,-999.0,59,-99.99,,,-99.99,,2013-09-06 10:42:00,
2013-09-06 04:53:00,51.0,37.0,29.90,SW,227,0.0,-999.0,58,-99.99,,,-99.99,,2013-09-06 10:53:00,
2013-09-06 05:11:00,51.0,38.0,29.90,SW,227,0.0,-999.0,61,-99.99,,,-99.99,,2013-09-06 11:11:00,
2013-09-06 05:22:00,51.0,37.0,29.91,SW,227,0.0,-999.0,58,-99.99,,,-99.99,,2013-09-06 11:22:00,
2013-09-06 05:52:00,51.0,37.0,29.91,SW,227,0.0,-999.0,59,-99.99,,,-99.99,,2013-09-06 11:52:00,
2013-09-06 06:12:00,50.0,36.0,29.92,SW,227,0.0,-999.0,59,-99.99,,,-99.99,,2013-09-06 12:12:00,
2013-09-06 06:21:00,50.0,37.0,29.92,SW,227,0.0,-999.0,60,-99.99,,,-99.99,,2013-09-06 12:21:00,
2013-09-06 06:42:00,49.0,36.0,29.92,SW,227,0.0,-999.0,61,-99.99,,,-99.99,,2013-09-06 12:42:00,
2013-09-06 06:52:00,50.0,37.0,29.92,SW,227,0.0,-999.0,60,-99.99,,,-99.99,,2013-09-06 12:52:00,
2013-09-06 07:11:00,50.0,36.0,29.93,SW,227,0.0,-999.0,59,-99.99,,,-99.99,,2013-09-06 13:11:00,
2013-09-06 07:22:00,49.0,36.0,29.93,SW,227,0.0,-999.0,61,-99.99,,,-99.99,,2013-09-06 13:22:00,
2013-09-06 07:52:00,51.0,37.0,29.93,SW,227,0.0,-999.0,59,-99.99,,,-99.99,,2013-09-06 13:52:00,
2013-09-06 08:11:00,52.0,37.0,29.93,SW,227,0.0,-999.0,57,-99.99,,,-99.99,,2013-09-06 14:11:00,
2013-09-06 08:22:00,53.0,37.0,29.93,SW,227,0.0,-999.0,55,-99.99,,,-99.99,,2013-09-06 14:22:00,
2013-09-06 08:52:00,55.0,39.0,29.93,SW,227,0.0,-999.0,54,-99.99,,,-99.99,,2013-09-06 14:52:00,
2013-09-06 09:11:00,56.0,39.0,29.93,SW,227,0.0,-999.0,53,-99.99,,,-99.99,,2013-09-06 15:11:00,
2013-09-06 09:22:00,59.0,41.0,29.93,SW,227,0.0,-999.0,51,-99.99,,,-99.99,,2013-09-06 15:22:00,
2013-09-06 09:53:00,62.0,42.0,29.92,SW,227,0.0,-999.0,47,-99.99,,,-99.99,,2013-09-06 15:53:00,
2013-09-06 10:13:00,63.0,41.0,29.91,SW,227,1.0,-999.0,44,-99.99,,,-99.99,,2013-09-06 16:13:00,
2013-09-06 10:24:00,65.0,41.0,29.90,SW,227,0.0,-999.0,42,-99.99,,,-99.99,,2013-09-06 16:24:00,
2013-09-06 10:53:00,69.0,42.0,29.89,SW,215,1.0,-999.0,38,-99.99,,,-99.99,,2013-09-06 16:53:00,
2013-09-06 11:24:00,72.0,43.0,29.88,SSW,197,0.0,-999.0,35,-99.99,,,-99.99,,2013-09-06 17:24:00,
2013-09-06 11:43:00,73.0,42.0,29.88,SSW,197,1.0,-999.0,33,-99.99,,,-99.99,,2013-09-06 17:43:00,
2013-09-06 11:53:00,74.0,41.0,29.86,SSE,165,1.0,-999.0,31,-99.99,,,-99.99,,2013-09-06 17:53:00,
2013-09-06 12:12:00,75.0,43.0,29.86,ESE,109,2.0,-999.0,32,-99.99,,,-99.99,,2013-09-06 18:12:00,
2013-09-06 12:22:00,76.0,43.0,29.86,SSW,192,3.0,-999.0,31,-99.99,,,-99.99,,2013-09-06 18:22:00,
2013-09-06 12:42:00,76.0,42.0,29.85,SW,217,1.0,-999.0,30,-99.99,,,-99.99,,2013-09-06 18:42:00,
2013-09-06 12:52:00,77.0,43.0,29.84,West,259,2.0,-999.0,30,-99.99,,,-99.99,,2013-09-06 18:52:00,
2013-09-06 13:11:00,77.0,42.0,29.83,West,259,2.0,-999.0,29,-99.99,,,-99.99,,2013-09-06 19:11:00,
2013-09-06 13:21:00,77.0,44.0,29.82,SSE,150,3.0,-999.0,31,-99.99,,,-99.99,,2013-09-06 19:21:00,
2013-09-06 13:42:00,77.0,44.0,29.82,SSW,200,2.0,-999.0,31,-99.99,,,-99.99,,2013-09-06 19:42:00,
2013-09-06 13:52:00,78.0,43.0,29.82,SW,215,3.0,-999.0,29,-99.99,,,-99.99,,2013-09-06 19:52:00,
2013-09-06 14:23:00,78.0,45.0,29.80,SE,132,2.0,-999.0,31,-99.99,,,-99.99,,2013-09-06 20:23:00,
2013-09-06 14:52:00,79.0,43.0,29.78,NE,55,1.0,-999.0,28,-99.99,,,-99.99,,2013-09-06 20:52:00,
2013-09-06 15:22:00,80.0,44.0,29.76,SSW,198,3.0,-999.0,28,-99.99,,,-99.99,,2013-09-06 21:22:00,
2013-09-06 15:54:00,81.0,44.0,29.75,SSW,199,2.0,-999.0,27,-99.99,,,-99.99,,2013-09-06 21:54:00,
2013-09-06 16:13:00,81.0,44.0,29.74,South,183,2.0,-999.0,27,-99.99,,,-99.99,,2013-09-06 22:13:00,
2013-09-06 16:23:00,81.0,44.0,29.74,SSW,195,1.0,-999.0,27,-99.99,,,-99.99,,2013-09-06 22:23:00,
2013-09-06 16:53:00,81.0,44.0,29.72,SSE,168,3.0,-999.0,27,-99.99,,,-99.99,,2013-09-06 22:53:00,
2013-09-06 17:12:00,81.0,45.0,29.73,SW,219,3.0,-999.0,28,-99.99,,,-99.99,,2013-09-06 23:12:00,
2013-09-06 17:23:00,80.0,43.0,29.72,South,190,3.0,-999.0,27,-99.99,,,-99.99,,2013-09-06 23:23:00,
2013-09-06 17:52:00,77.0,40.0,29.72,NW,325,2.0,-999.0,27,-99.99,,,-99.99,,2013-09-06 23:52:00,
2013-09-06 18:12:00,77.0,42.0,29.72,SW,219,0.0,-999.0,29,-99.99,,,-99.99,,2013-09-07 00:12:00,
2013-09-06 18:22:00,77.0,42.0,29.72,SSE,157,1.0,-999.0,29,-99.99,,,-99.99,,2013-09-07 00:22:00,
2013-09-06 18:52:00,76.0,42.0,29.71,SSE,156,0.0,-999.0,30,-99.99,,,-99.99,,2013-09-07 00:52:00,
2013-09-06 19:12:00,75.0,43.0,29.72,SSE,156,0.0,-999.0,32,-99.99,,,-99.99,,2013-09-07 01:12:00,
2013-09-06 19:21:00,74.0,44.0,29.73,SSE,149,0.0,-999.0,34,-99.99,,,-99.99,,2013-09-07 01:21:00,
2013-09-06 19:42:00,72.0,44.0,29.73,SSE,159,0.0,-999.0,36,-99.99,,,-99.99,,2013-09-07 01:42:00,
2013-09-06 19:53:00,71.0,43.0,29.74,SSE,159,0.0,-999.0,37,-99.99,,,-99.99,,2013-09-07 01:53:00,
2013-09-06 20:12:00,70.0,44.0,29.74,SSE,159,0.0,-999.0,39,-99.99,,,-99.99,,2013-09-07 02:12:00,
2013-09-06 20:23:00,69.0,43.0,29.75,ENE,57,0.0,-999.0,39,-99.99,,,-99.99,,2013-09-07 02:23:00,
2013-09-06 20:42:00,69.0,44.0,29.75,North,355,0.0,-999.0,40,-99.99,,,-99.99,,2013-09-07 02:42:00,
2013-09-06 20:52:00,68.0,43.0,29.76,North,355,0.0,-999.0,41,-99.99,,,-99.99,,2013-09-07 02:52:00,
2013-09-06 21:11:00,68.0,43.0,29.76,North,355,0.0,-999.0,41,-99.99,,,-99.99,,2013-09-07 03:11:00,
2013-09-06 21:22:00,68.0,43.0,29.76,North,360,0.0,-999.0,41,-99.99,,,-99.99,,2013-09-07 03:22:00,
2013-09-06 21:55:00,67.0,47.0,29.77,North,360,0.0,-999.0,48,-99.99,,,-99.99,,2013-09-07 03:55:00,
2013-09-06 22:14:00,65.0,45.0,29.77,North,360,0.0,-999.0,49,-99.99,,,-99.99,,2013-09-07 04:14:00,
2013-09-06 22:23:00,65.0,45.0,29.77,North,360,0.0,-999.0,49,-99.99,,,-99.99,,2013-09-07 04:23:00,
2013-09-06 22:43:00,63.0,44.0,29.77,North,360,0.0,-999.0,49,-99.99,,,-99.99,,2013-09-07 04:43:00,
2013-09-06 22:54:00,63.0,45.0,29.77,North,360,0.0,-999.0,52,-99.99,,,-99.99,,2013-09-07 04:54:00,
2013-09-06 23:12:00,62.0,44.0,29.78,North,360,0.0,-999.0,52,-99.99,,,-99.99,,2013-09-07 05:12:00,
2013-09-06 23:23:00,62.0,44.0,29.78,North,360,0.0,-999.0,52,-99.99,,,-99.99,,2013-09-07 05:23:00,
2013-09-06 23:52:00,62.0,45.0,29.78,North,360,0.0,-999.0,53,-99.99,,,-99.99,,2013-09-07 05:52:00,